RYE03 ENTO-EVRA

Flight info

Callsign RYE03
Flight time 1h 15m
Altitude 37000
Route VATEX P609 KSD DCT DEPEX DCT RASEL L199 MILTA Y130 LAPSA
Aircraft BBJ2/M-SDE2E3FGHIRWXY/LB1

Departure

Time 2026-05-06 08:49
Airport Sandefjord Airport, Torp (ENTO)

Arrival

Time 2026-05-06 10:05
Airport Riga International Airport (EVRA)
Time Latitude Longitude Altitude Speed Heading
2026-05-06 08:26 59.18011 10.25045 269 ft 0 kts 181°
2026-05-06 08:43 59.18030 10.25047 269 ft 4 kts 185°
2026-05-06 08:43 59.18056 10.25048 269 ft 4 kts 164°
2026-05-06 08:44 59.18065 10.25038 270 ft 1 kts 89°
2026-05-06 08:45 59.18065 10.25043 270 ft 2 kts 89°
2026-05-06 08:46 59.18066 10.25177 270 ft 17 kts 89°
2026-05-06 08:46 59.18068 10.25429 270 ft 19 kts 90°
2026-05-06 08:46 59.17970 10.25543 268 ft 18 kts 177°
2026-05-06 08:46 59.17847 10.25573 267 ft 18 kts 151°
2026-05-06 08:47 59.17745 10.25703 266 ft 17 kts 146°
2026-05-06 08:47 59.17647 10.25832 266 ft 17 kts 146°
2026-05-06 08:47 59.17532 10.25890 263 ft 18 kts 180°
2026-05-06 08:47 59.17423 10.25966 261 ft 15 kts 171°
2026-05-06 08:48 59.17397 10.25870 261 ft 9 kts 332°
2026-05-06 08:48 59.17456 10.25889 262 ft 9 kts
2026-05-06 08:48 59.17493 10.25890 262 ft 0 kts 359°
2026-05-06 08:48 59.17505 10.25890 263 ft 14 kts 359°
2026-05-06 08:49 59.17896 10.25882 268 ft 96 kts 360°
2026-05-06 08:49 59.18807 10.25863 323 ft 159 kts 359°
2026-05-06 08:49 59.19920 10.25823 1138 ft 158 kts 359°
2026-05-06 08:49 59.21018 10.25788 2070 ft 162 kts 359°
2026-05-06 08:50 59.22231 10.25755 2451 ft 190 kts 360°
2026-05-06 08:50 59.23620 10.25728 2903 ft 206 kts
2026-05-06 08:50 59.25081 10.25703 3468 ft 213 kts
2026-05-06 08:50 59.26575 10.25679 4186 ft 216 kts
2026-05-06 08:51 59.28089 10.25901 4768 ft 228 kts 19°
2026-05-06 08:51 59.29417 10.27789 5001 ft 253 kts 57°
2026-05-06 08:51 59.29895 10.31135 5501 ft 265 kts 95°
2026-05-06 08:51 59.29390 10.34617 6241 ft 269 kts 108°
2026-05-06 08:52 59.29304 10.38217 6970 ft 275 kts 75°
2026-05-06 08:52 59.30026 10.41689 7798 ft 278 kts 65°
2026-05-06 08:52 59.30813 10.44996 8513 ft 283 kts 66°
2026-05-06 08:52 59.31616 10.48546 9321 ft 288 kts 67°
2026-05-06 08:53 59.32398 10.52187 10140 ft 292 kts 68°
2026-05-06 08:53 59.33173 10.55934 10536 ft 314 kts 68°
2026-05-06 08:53 59.33993 10.60012 11090 ft 327 kts 68°
2026-05-06 08:53 59.34821 10.64199 11857 ft 332 kts 68°
2026-05-06 08:54 59.35654 10.68449 12625 ft 338 kts 68°
2026-05-06 08:54 59.36501 10.72802 13349 ft 346 kts 68°
2026-05-06 08:54 59.37367 10.77265 14070 ft 353 kts 68°
2026-05-06 08:54 59.37982 10.81965 14765 ft 363 kts 88°
2026-05-06 08:55 59.37824 10.86942 15518 ft 368 kts 97°
2026-05-06 08:55 59.37518 10.91975 16253 ft 375 kts 98°
2026-05-06 08:55 59.37181 10.97087 16939 ft 382 kts 99°
2026-05-06 08:55 59.36837 11.02308 17600 ft 390 kts 98°
2026-05-06 08:56 59.36494 11.07637 18250 ft 398 kts 98°
2026-05-06 08:56 59.36154 11.13055 18932 ft 403 kts 98°
2026-05-06 08:56 59.35815 11.18539 19636 ft 408 kts 99°
2026-05-06 08:56 59.35473 11.24100 20305 ft 413 kts 99°
2026-05-06 08:57 59.35127 11.29737 20934 ft 419 kts 99°
2026-05-06 08:57 59.34775 11.35435 21557 ft 424 kts 99°
2026-05-06 08:57 59.34417 11.41197 22152 ft 429 kts 100°
2026-05-06 08:57 59.34050 11.47042 22746 ft 434 kts 100°
2026-05-06 08:58 59.33679 11.52934 23326 ft 439 kts 100°
2026-05-06 08:58 59.33300 11.58903 23887 ft 443 kts 101°
2026-05-06 08:58 59.32915 11.64922 24393 ft 449 kts 101°
2026-05-06 08:58 59.32523 11.71018 24895 ft 454 kts 101°
2026-05-06 08:59 59.32121 11.77181 25423 ft 458 kts 101°
2026-05-06 08:59 59.31842 11.83423 25925 ft 466 kts 91°
2026-05-06 08:59 59.32253 11.89753 26417 ft 472 kts 81°
2026-05-06 08:59 59.32867 11.96091 26899 ft 476 kts 81°
2026-05-06 09:00 59.33466 12.02412 27312 ft 480 kts 81°
2026-05-06 09:00 59.34052 12.08886 27728 ft 485 kts 82°
2026-05-06 09:00 59.34625 12.15423 28152 ft 488 kts 82°
2026-05-06 09:00 59.35189 12.22000 28581 ft 492 kts 83°
2026-05-06 09:01 59.35752 12.28653 28985 ft 496 kts 83°
2026-05-06 09:01 59.36316 12.35343 29365 ft 499 kts 83°
2026-05-06 09:01 59.36880 12.42074 29760 ft 502 kts 83°
2026-05-06 09:01 59.37447 12.48859 30138 ft 505 kts 83°
2026-05-06 09:02 59.38014 12.55684 30480 ft 509 kts 83°
2026-05-06 09:02 59.38581 12.62556 30834 ft 512 kts 83°
2026-05-06 09:02 59.39146 12.69440 31209 ft 513 kts 83°
2026-05-06 09:02 59.39713 12.76382 31593 ft 514 kts 83°
2026-05-06 09:03 59.40273 12.83296 32028 ft 513 kts 83°
2026-05-06 09:03 59.40830 12.90213 32532 ft 511 kts 83°
2026-05-06 09:03 59.41379 12.97080 33023 ft 508 kts 83°
2026-05-06 09:03 59.41922 13.03921 33456 ft 507 kts 83°
2026-05-06 09:04 59.42462 13.10782 33813 ft 508 kts 83°
2026-05-06 09:04 59.42998 13.17632 34174 ft 508 kts 83°
2026-05-06 09:04 59.43524 13.24481 34602 ft 505 kts 85°
2026-05-06 09:04 59.43737 13.31322 35018 ft 499 kts 95°
2026-05-06 09:05 59.43480 13.38068 35439 ft 492 kts 103°
2026-05-06 09:05 59.42740 13.44572 35789 ft 486 kts 111°
2026-05-06 09:05 59.41816 13.50931 36150 ft 484 kts 111°
2026-05-06 09:05 59.40868 13.57267 36489 ft 483 kts 111°
2026-05-06 09:06 59.39937 13.63496 36804 ft 482 kts 111°
2026-05-06 09:06 59.39004 13.69803 37016 ft 481 kts 111°
2026-05-06 09:06 59.38080 13.76109 36983 ft 478 kts 110°
2026-05-06 09:07 59.36283 13.88516 36986 ft 470 kts 110°
2026-05-06 09:07 59.34493 14.00831 36996 ft 470 kts 111°
2026-05-06 09:08 59.32687 14.13134 36993 ft 470 kts 111°
2026-05-06 09:08 59.30869 14.25451 36993 ft 471 kts 111°
2026-05-06 09:09 59.29032 14.37777 37005 ft 471 kts 112°
2026-05-06 09:09 59.27186 14.50069 36990 ft 471 kts 112°
2026-05-06 09:10 59.25336 14.62321 36986 ft 469 kts 112°
2026-05-06 09:10 59.23485 14.74499 36987 ft 467 kts 112°
2026-05-06 09:11 59.21624 14.86610 36981 ft 464 kts 112°
2026-05-06 09:11 59.19766 14.98651 36984 ft 462 kts 113°
2026-05-06 09:12 59.17761 15.10505 36990 ft 458 kts 116°
2026-05-06 09:12 59.15519 15.22106 36999 ft 457 kts 117°
2026-05-06 09:13 59.13250 15.33719 36990 ft 459 kts 117°
2026-05-06 09:13 59.10991 15.45362 36995 ft 460 kts 117°
2026-05-06 09:14 59.08738 15.57018 36998 ft 460 kts 117°
2026-05-06 09:14 59.06471 15.68691 37002 ft 461 kts 117°
2026-05-06 09:15 59.04187 15.80344 37003 ft 462 kts 117°
2026-05-06 09:15 59.01900 15.91992 37016 ft 462 kts 117°
2026-05-06 09:16 58.99598 16.03633 37009 ft 462 kts 117°
2026-05-06 09:16 58.97300 16.15208 37012 ft 462 kts 117°
2026-05-06 09:17 58.94972 16.26816 37002 ft 462 kts 118°
2026-05-06 09:17 58.92641 16.38398 37021 ft 461 kts 118°
2026-05-06 09:18 58.90295 16.49977 37014 ft 462 kts 118°
2026-05-06 09:18 58.87939 16.61523 37022 ft 461 kts 118°
2026-05-06 09:19 58.85578 16.73051 37018 ft 461 kts 118°
2026-05-06 09:19 58.83214 16.84544 37021 ft 461 kts 118°
2026-05-06 09:20 58.81238 16.94096 37017 ft 461 kts 118°
2026-05-06 09:20 58.78850 17.05559 37021 ft 460 kts 118°
2026-05-06 09:21 58.76463 17.16972 37017 ft 460 kts 118°
2026-05-06 09:21 58.74065 17.28390 37019 ft 459 kts 119°
2026-05-06 09:22 58.71654 17.39778 37013 ft 459 kts 119°
2026-05-06 09:22 58.69238 17.51125 37021 ft 458 kts 119°
2026-05-06 09:23 58.66812 17.62458 37019 ft 458 kts 119°
2026-05-06 09:23 58.64373 17.73789 37019 ft 459 kts 119°
2026-05-06 09:24 58.61931 17.85082 37018 ft 459 kts 119°
2026-05-06 09:24 58.59476 17.96369 37022 ft 458 kts 120°
2026-05-06 09:25 58.57010 18.07647 37013 ft 459 kts 120°
2026-05-06 09:25 58.54532 18.18910 37023 ft 459 kts 120°
2026-05-06 09:26 58.52044 18.30169 37019 ft 459 kts 120°
2026-05-06 09:26 58.49545 18.41414 37018 ft 459 kts 120°
2026-05-06 09:27 58.47036 18.52632 37016 ft 459 kts 120°
2026-05-06 09:27 58.44518 18.63842 37017 ft 459 kts 120°
2026-05-06 09:28 58.42011 18.74950 37019 ft 459 kts 120°
2026-05-06 09:28 58.39477 18.86106 37018 ft 459 kts 120°
2026-05-06 09:29 58.36931 18.97260 37020 ft 459 kts 120°
2026-05-06 09:29 58.34379 19.08395 37019 ft 459 kts 120°
2026-05-06 09:30 58.31814 19.19519 37018 ft 459 kts 121°
2026-05-06 09:30 58.29239 19.30621 37020 ft 459 kts 121°
2026-05-06 09:31 58.26654 19.41713 37017 ft 459 kts 121°
2026-05-06 09:31 58.24061 19.52781 37020 ft 459 kts 121°
2026-05-06 09:32 58.21459 19.63837 37019 ft 458 kts 121°
2026-05-06 09:32 58.18854 19.74847 37017 ft 458 kts 121°
2026-05-06 09:33 58.16242 19.85826 37021 ft 457 kts 121°
2026-05-06 09:33 58.13625 19.96774 37017 ft 456 kts 121°
2026-05-06 09:34 58.11000 20.07702 36875 ft 458 kts 121°
2026-05-06 09:34 58.09691 20.13123 36442 ft 458 kts 121°
2026-05-06 09:34 58.08372 20.18584 35941 ft 456 kts 122°
2026-05-06 09:34 58.07055 20.24026 35524 ft 453 kts 122°
2026-05-06 09:35 58.05732 20.29488 35124 ft 450 kts 122°
2026-05-06 09:35 58.04445 20.34774 34735 ft 447 kts 123°
2026-05-06 09:35 58.03147 20.40086 34329 ft 445 kts 123°
2026-05-06 09:35 58.01716 20.45184 33889 ft 437 kts 130°
2026-05-06 09:36 58.00159 20.50074 33469 ft 433 kts 131°
2026-05-06 09:36 57.98582 20.54876 33074 ft 430 kts 131°
2026-05-06 09:36 57.97007 20.59652 32681 ft 427 kts 131°
2026-05-06 09:36 57.95448 20.64402 32299 ft 425 kts 131°
2026-05-06 09:37 57.93904 20.69132 31910 ft 423 kts 130°
2026-05-06 09:37 57.92373 20.73844 31532 ft 421 kts 130°
2026-05-06 09:37 57.90851 20.78530 31148 ft 418 kts 130°
2026-05-06 09:37 57.89337 20.83185 30774 ft 416 kts 130°
2026-05-06 09:38 57.87831 20.87812 30400 ft 414 kts 130°
2026-05-06 09:38 57.86331 20.92405 30025 ft 412 kts 130°
2026-05-06 09:38 57.84836 20.96972 29647 ft 409 kts 130°
2026-05-06 09:38 57.83347 21.01514 29261 ft 407 kts 130°
2026-05-06 09:39 57.81868 21.06018 28862 ft 404 kts 130°
2026-05-06 09:39 57.80395 21.10495 28472 ft 402 kts 130°
2026-05-06 09:39 57.78928 21.14952 28082 ft 400 kts 130°
2026-05-06 09:39 57.77469 21.19380 27698 ft 398 kts 130°
2026-05-06 09:40 57.76016 21.23779 27315 ft 396 kts 130°
2026-05-06 09:40 57.74570 21.28148 26930 ft 394 kts 130°
2026-05-06 09:40 57.71694 21.36814 26176 ft 390 kts 130°
2026-05-06 09:41 57.70267 21.41104 25788 ft 388 kts 130°
2026-05-06 09:41 57.68846 21.45373 25405 ft 386 kts 129°
2026-05-06 09:41 57.67496 21.49727 25027 ft 387 kts 127°
2026-05-06 09:41 57.66213 21.54132 24641 ft 386 kts 126°
2026-05-06 09:42 57.64951 21.58554 24269 ft 384 kts 126°
2026-05-06 09:42 57.63700 21.62937 23895 ft 382 kts 126°
2026-05-06 09:42 57.62445 21.67302 23519 ft 380 kts 126°
2026-05-06 09:42 57.61194 21.71626 23150 ft 378 kts 126°
2026-05-06 09:43 57.59941 21.75930 22778 ft 376 kts 126°
2026-05-06 09:43 57.58691 21.80205 22407 ft 375 kts 126°
2026-05-06 09:43 57.57443 21.84460 22033 ft 373 kts 126°
2026-05-06 09:43 57.56200 21.88683 21663 ft 372 kts 126°
2026-05-06 09:44 57.54974 21.92847 21297 ft 370 kts 126°
2026-05-06 09:44 57.53738 21.97033 20930 ft 368 kts 126°
2026-05-06 09:44 57.52506 22.01205 20568 ft 366 kts 126°
2026-05-06 09:44 57.51277 22.05351 20196 ft 365 kts 126°
2026-05-06 09:45 57.50055 22.09474 19828 ft 363 kts 126°
2026-05-06 09:45 57.48835 22.13578 19467 ft 362 kts 126°
2026-05-06 09:45 57.47623 22.17652 19106 ft 360 kts 126°
2026-05-06 09:45 57.46412 22.21707 18742 ft 358 kts 126°
2026-05-06 09:46 57.45204 22.25743 18382 ft 356 kts 126°
2026-05-06 09:46 57.44006 22.29753 18017 ft 355 kts 126°
2026-05-06 09:46 57.42811 22.33743 17668 ft 353 kts 126°
2026-05-06 09:46 57.41619 22.37717 17308 ft 351 kts 126°
2026-05-06 09:47 57.40431 22.41662 16950 ft 349 kts 126°
2026-05-06 09:47 57.39242 22.45577 16598 ft 347 kts 126°
2026-05-06 09:47 57.38056 22.49462 16246 ft 346 kts 126°
2026-05-06 09:47 57.36877 22.53323 15900 ft 343 kts 126°
2026-05-06 09:48 57.35702 22.57166 15548 ft 341 kts 126°
2026-05-06 09:48 57.34537 22.60969 15216 ft 339 kts 126°
2026-05-06 09:48 57.33156 22.64388 14844 ft 325 kts 146°
2026-05-06 09:48 57.31384 22.66845 14573 ft 315 kts 153°
2026-05-06 09:49 57.29580 22.69117 14253 ft 312 kts 153°
2026-05-06 09:49 57.27787 22.71345 13945 ft 309 kts 153°
2026-05-06 09:49 57.26012 22.73562 13640 ft 307 kts 153°
2026-05-06 09:49 57.24253 22.75775 13332 ft 305 kts 152°
2026-05-06 09:50 57.22508 22.77978 13033 ft 303 kts 152°
2026-05-06 09:50 57.20773 22.80175 12725 ft 301 kts 152°
2026-05-06 09:50 57.19057 22.82351 12424 ft 299 kts 152°
2026-05-06 09:50 57.17364 22.84496 12128 ft 297 kts 152°
2026-05-06 09:51 57.15666 22.86645 11831 ft 295 kts 152°
2026-05-06 09:51 57.13955 22.88808 11532 ft 293 kts 151°
2026-05-06 09:51 57.12304 22.90892 11242 ft 290 kts 151°
2026-05-06 09:51 57.10646 22.92984 10958 ft 288 kts 150°
2026-05-06 09:52 57.08996 22.95062 10658 ft 287 kts 150°
2026-05-06 09:52 57.07353 22.97131 10390 ft 286 kts 149°
2026-05-06 09:52 57.05710 22.99197 10127 ft 286 kts 149°
2026-05-06 09:52 57.04072 23.01256 9844 ft 283 kts 148°
2026-05-06 09:53 57.02465 23.03322 9568 ft 282 kts 142°
2026-05-06 09:53 57.01294 23.06178 9281 ft 283 kts 114°
2026-05-06 09:53 57.00842 23.09669 9024 ft 281 kts 97°
2026-05-06 09:53 57.00655 23.13215 8753 ft 278 kts 95°
2026-05-06 09:54 57.00491 23.16746 8468 ft 277 kts 95°
2026-05-06 09:54 57.00320 23.20246 8197 ft 275 kts 95°
2026-05-06 09:54 57.00137 23.23726 7926 ft 273 kts 96°
2026-05-06 09:54 56.99950 23.27185 7646 ft 272 kts 95°
2026-05-06 09:55 56.99759 23.30610 7381 ft 269 kts 96°
2026-05-06 09:55 56.99550 23.34003 7114 ft 266 kts 101°
2026-05-06 09:55 56.98802 23.37053 6850 ft 263 kts 125°
2026-05-06 09:55 56.97733 23.39738 6606 ft 260 kts 126°
2026-05-06 09:56 56.96655 23.42387 6348 ft 258 kts 126°
2026-05-06 09:56 56.95587 23.45007 6087 ft 256 kts 126°
2026-05-06 09:56 56.94529 23.47614 5850 ft 255 kts 126°
2026-05-06 09:56 56.93474 23.50216 5580 ft 253 kts 126°
2026-05-06 09:57 56.92428 23.52804 5335 ft 251 kts 125°
2026-05-06 09:57 56.91397 23.55357 5080 ft 247 kts 126°
2026-05-06 09:57 56.90390 23.57840 4853 ft 239 kts 125°
2026-05-06 09:57 56.89417 23.60249 4593 ft 231 kts 125°
2026-05-06 09:58 56.88477 23.62579 4396 ft 225 kts 125°
2026-05-06 09:58 56.87562 23.64840 4191 ft 216 kts 125°
2026-05-06 09:58 56.86692 23.66987 3982 ft 207 kts 125°
2026-05-06 09:58 56.85848 23.69068 3762 ft 198 kts 124°
2026-05-06 09:59 56.85051 23.71032 3582 ft 187 kts 124°
2026-05-06 09:59 56.84297 23.72881 3390 ft 180 kts 124°
2026-05-06 09:59 56.83560 23.74691 3237 ft 175 kts 124°
2026-05-06 09:59 56.82838 23.76471 3042 ft 173 kts 123°
2026-05-06 10:00 56.82422 23.78484 2885 ft 170 kts 93°
2026-05-06 10:00 56.82302 23.80683 2479 ft 178 kts 95°
2026-05-06 10:00 56.82145 23.82851 2245 ft 168 kts 95°
2026-05-06 10:00 56.81996 23.84825 2114 ft 147 kts 94°
2026-05-06 10:01 56.81866 23.86626 2039 ft 141 kts 93°
2026-05-06 10:01 56.81764 23.88390 1985 ft 139 kts 89°
2026-05-06 10:01 56.81802 23.90157 1859 ft 135 kts 76°
2026-05-06 10:01 56.82104 23.91774 1799 ft 137 kts 62°
2026-05-06 10:02 56.82615 23.93231 1665 ft 135 kts 49°
2026-05-06 10:02 56.83273 23.94443 1522 ft 136 kts 40°
2026-05-06 10:02 56.84055 23.95390 1373 ft 134 kts 24°
2026-05-06 10:02 56.84943 23.95750 1231 ft 130 kts
2026-05-06 10:03 56.85858 23.96010 1042 ft 133 kts
2026-05-06 10:03 56.86777 23.96187 836 ft 131 kts
2026-05-06 10:03 56.87680 23.96344 666 ft 133 kts
2026-05-06 10:03 56.88616 23.96496 478 ft 136 kts
2026-05-06 10:04 56.89564 23.96628 292 ft 138 kts
2026-05-06 10:04 56.90507 23.96793 124 ft 136 kts
2026-05-06 10:04 56.91404 23.96941 46 ft 115 kts
2026-05-06 10:04 56.91901 23.97044 43 ft 52 kts
2026-05-06 10:05 56.92116 23.97070 43 ft 24 kts
2026-05-06 10:05 56.92279 23.97094 43 ft 23 kts
2026-05-06 10:05 56.92423 23.97203 42 ft 22 kts 32°
2026-05-06 10:05 56.92546 23.97368 40 ft 20 kts 36°
2026-05-06 10:06 56.92614 23.97516 42 ft 15 kts 85°
2026-05-06 10:06 56.92603 23.97707 42 ft 15 kts 96°
2026-05-06 10:06 56.92625 23.97867 41 ft 14 kts 19°
2026-05-06 10:06 56.92689 23.97875 40 ft 14 kts
2026-05-06 10:07 56.92757 23.97849 40 ft 8 kts 302°
2026-05-06 10:07 56.92765 23.97829 42 ft 0 kts 308°
2026-05-06 10:07 56.92767 23.97825 42 ft 2 kts 309°
2026-05-06 10:07 56.92784 23.97795 41 ft 5 kts 318°
2026-05-06 10:08 56.92787 23.97790 42 ft 0 kts 318°